Location: West Sayville
(40.7279°N, 73.0976°W)
Time: 09:41:34
(UTC+00:00)

OAO 2 Rocket - Pass Details

Date: 29 October 2020
Orbit: 676 x 746 km, 35.0° (Epoch: 23 November)

Event Time Altitude Azimuth Distance (km) Brightness Sun altitude
Rises 23:38:47 0° 261° (W) 3,060 8.1 -20.8°
Reaches altitude 10° 23:41:17 10° 254° (WSW) 2,133 6.9 -21.3°
Maximum altitude 23:45:59 43° 184° (S) 957 4.0 -22.2°
Enters shadow 23:46:58 38° 153° (SSE) 1,034 3.9 -22.3°
